Location: Poughquag
(41.6090°N, 73.6820°W)
Time: 14:48:17
(UTC-04:00)

Altair - Pass Details

Date: 07 June 2020
Orbit: 1501 x 1683 km, 47.2° (Epoch: 05 July)

Event Time Altitude Azimuth Distance (km) Brightness Sun altitude
Rises 01:58:59 0° 293° (WNW) 4,902 10.2 -23.8°
Reaches altitude 10° 02:02:07 10° 294° (WNW) 3,927 9.7 -23.7°
Maximum altitude 02:12:19 86° 25° (NNE) 1,689 7.6 -23.1°
Drops below altitude 10° 02:22:30 10° 115° (ESE) 3,922 9.6 -22.4°
Sets 02:25:38 0° 116° (ESE) 4,895 10.1 -22.2°
